Asheville, NC

11:27 PM EST on February 23, 2018 (GMT -0500)
Asheville Regional

Weather History for KAVL - March, 2008

Change the Weather History Date:

Monday, March 24, 2008

  Actual Average Record
Temperature  
Mean Temperature 36 °F 49 °F  
Max Temperature 44 °F 61 °F 83 °F (1927)
Min Temperature 27 °F 37 °F 22 °F (1940)
Degree Days  
Heating Degree Days 29 16  
Month to date heating degree days 462 450  
Since 1 July heating degree days 3445 3667  
Cooling Degree Days 0 0  
Month to date cooling degree days 0 0  
Year to date cooling degree days 0 0  
Moisture  
Dew Point 21 °F    
Average Humidity 56    
Maximum Humidity 78    
Minimum Humidity 34    
Precipitation  
Precipitation T in 0.12 in 1.38 in (1954)
Month to date precipitation 4.19 2.95  
Year to date precipitation 10.54 10.38  
Snow  
Snow 0.00 in 0.10 in 3.50 in (1940)
Month to date snowfall T 1.6  
Since 1 July snowfall 3.8 8.9  
Snow Depth -    
Sea Level Pressure  
Sea Level Pressure 30.22 in    
Wind  
Wind Speed 13 mph (NNW)    
Max Wind Speed 23 mph    
Max Gust Speed 30 mph    
Visibility 10 miles    
Events      
T = Trace of Precipitation, MM = Missing Value Source: NWS Daily Summary

Daily Weather History Graph

Daily Weather History Graph

Search for Another Location

Airport or City:

Trip Planner

Search our weather history database for the weather conditions in past years. The results will help you decide how hot, cold, wet, or windy it might be!

Date:

Astronomy

Mar. 24, 2008 Rise Set
Actual Time 7:27 AM EDT 7:45 PM EDT
Civil Twilight 7:02 AM EDT 8:11 PM EDT
Nautical Twilight 6:32 AM EDT 8:40 PM EDT
Astronomical Twilight 6:02 AM EDT 9:11 PM EDT
Moon 10:53 PM EDT 8:32 AM EDT
Length of Visible Light 13h 09m
Length of Day
12h 18m
Waning Gibbous, 92% of the Moon is Illuminated
Mar 24
Waning Gibbous
Mar 29
Last Quarter
Apr 5
New
Apr 12
First Quarter
Apr 20
Full

Hourly Weather History & Observations

Time (EDT) Temp. Windchill Dew Point Humidity Pressure Visibility Wind Dir Wind Speed Gust Speed Precip Events Conditions
12:54 AM 32.0 °F 21.2 °F 21.0 °F 64% 30.18 in 10.0 mi NNW 16.1 mph - N/A   Clear
1:54 AM 30.9 °F 20.2 °F 21.0 °F 67% 30.18 in 10.0 mi NNW 15.0 mph - N/A   Clear
2:54 AM 30.0 °F 21.1 °F 21.0 °F 69% 30.17 in 10.0 mi North 10.4 mph - N/A   Clear
3:54 AM 30.0 °F 20.5 °F 21.0 °F 69% 30.16 in 10.0 mi NNW 11.5 mph - N/A   Clear
4:54 AM 28.9 °F 19.2 °F 21.0 °F 72% 30.16 in 10.0 mi NNW 11.5 mph - N/A   Clear
5:54 AM 28.9 °F 21.1 °F 21.0 °F 72% 30.16 in 10.0 mi NNW 8.1 mph - N/A   Clear
6:54 AM 28.4 °F 20.4 °F 21.2 °F 74% 30.16 in 10.0 mi NNW 8.1 mph - N/A   Clear
7:54 AM 28.9 °F 21.1 °F 21.0 °F 72% 30.20 in 10.0 mi North 8.1 mph - N/A   Clear
8:54 AM 32.0 °F 25.6 °F 21.9 °F 66% 30.21 in 10.0 mi North 6.9 mph - N/A   Clear
9:30 AM 32.0 °F 24.8 °F 23.0 °F 69% 30.19 in 10.0 mi North 8.1 mph - N/A   Mostly Cloudy
9:54 AM 34.0 °F 25.5 °F 23.0 °F 64% 30.22 in 10.0 mi NNW 11.5 mph - N/A   Scattered Clouds
10:54 AM 35.6 °F 25.9 °F 21.2 °F 56% 30.21 in 10.0 mi NNW 16.1 mph 21.9 mph N/A   Mostly Cloudy
11:54 AM 39.0 °F 28.8 °F 21.0 °F 49% 30.24 in 10.0 mi NNW 21.9 mph 26.5 mph N/A   Clear
12:54 PM 39.0 °F 29.3 °F 18.0 °F 43% 30.23 in 10.0 mi NNW 19.6 mph 27.6 mph N/A   Partly Cloudy
1:54 PM 39.9 °F 31.4 °F 19.0 °F 43% 30.22 in 10.0 mi North 16.1 mph 26.5 mph N/A   Partly Cloudy
2:54 PM 41.0 °F 31.9 °F 17.1 °F 38% 30.21 in 10.0 mi NNW 19.6 mph 29.9 mph N/A   Clear
3:54 PM 41.0 °F 31.4 °F 15.1 °F 35% 30.20 in 10.0 mi NNW 21.9 mph 25.3 mph N/A   Mostly Cloudy
4:54 PM 39.9 °F 30.8 °F 15.1 °F 36% 30.21 in 10.0 mi NW 18.4 mph 25.3 mph N/A   Clear
5:54 PM 37.9 °F 27.6 °F 15.1 °F 39% 30.22 in 10.0 mi NW 20.7 mph 25.3 mph N/A   Clear
6:54 PM 36.0 °F 28.0 °F 21.9 °F 57% 30.25 in 10.0 mi NNW 11.5 mph - N/A   Clear
7:54 PM 35.1 °F 26.9 °F 21.9 °F 59% 30.27 in 10.0 mi North 11.5 mph - N/A   Clear
8:54 PM 34.0 °F 26.6 °F 23.0 °F 64% 30.28 in 10.0 mi North 9.2 mph - N/A   Scattered Clouds
9:54 PM 33.1 °F 25.5 °F 24.1 °F 70% 30.31 in 10.0 mi NNW 9.2 mph - N/A   Mostly Cloudy
10:54 PM 32.0 °F 22.1 °F 25.0 °F 75% 30.33 in 10.0 mi NNW 13.8 mph - N/A   Mostly Cloudy
11:54 PM 30.9 °F 21.7 °F 25.0 °F 79% 30.32 in 10.0 mi NNW 11.5 mph - 0.00 in   Clear